When you browse on this site, cookies collect data to enhance your experience and personalize the content and advertising you see.
Visit our Privacy Policy to learn more. By continuing to use the site, you agree to this use of cookies and data.
  • In Hungary
  • List of Countries
  • For 7 days
  • Water Temperature
  • Weather Map
  • News
  • Weather Widgets
  • user-avatar
    Login

    Hourly Weather Durres

    Today, 25 May, Monday

    Time Temperature Precipitation Wind Pressure Humidity
    00:00 +18°C° 0 mm 2 mps 765 mmHg 77%
    01:00 +17°C° 0 mm 2 mps 765 mmHg 77%
    02:00 +17°C° 0 mm 3 mps 765 mmHg 78%
    03:00 +17°C° 0 mm 3 mps 765 mmHg 79%
    04:00 +15°C° 0 mm 4 mps 765 mmHg 80%
    05:00 +18°C° 0 mm 4 mps 765 mmHg 75%
    06:00 +19°C° 0 mm 4 mps 765 mmHg 70%
    07:00 +20°C° 0 mm 4 mps 765 mmHg 65%
    08:00 +22°C° 0 mm 5 mps 765 mmHg 61%
    09:00 +23°C° 0 mm 5 mps 765 mmHg 56%
    10:00 +24°C° 0 mm 6 mps 765 mmHg 52%
    11:00 +24°C° 0 mm 7 mps 764 mmHg 49%
    12:00 +26°C° 0 mm 8 mps 764 mmHg 45%
    13:00 +26°C° 0 mm 9 mps 764 mmHg 43%
    14:00 +24°C° 0 mm 9 mps 764 mmHg 44%
    15:00 +23°C° 0 mm 9 mps 763 mmHg 46%
    16:00 +23°C° 0 mm 9 mps 763 mmHg 47%
    17:00 +21°C° 0 mm 9 mps 763 mmHg 53%
    18:00 +18°C° 0 mm 9 mps 763 mmHg 59%
    19:00 +17°C° 0 mm 8 mps 763 mmHg 65%
    20:00 +16°C° 0 mm 8 mps 763 mmHg 67%
    21:00 +16°C° 0 mm 7 mps 764 mmHg 68%
    22:00 +15°C° 0 mm 7 mps 764 mmHg 70%
    23:00 +15°C° 0 mm 5 mps 764 mmHg 70%

    Tomorrow, 26 May, Tuesday

    Time Temperature Precipitation Wind Pressure Humidity
    00:00 +14°C° 0 mm 4 mps 763 mmHg 70%
    01:00 +14°C° 0 mm 3 mps 763 mmHg 70%
    02:00 +14°C° 0 mm 3 mps 763 mmHg 71%
    03:00 +14°C° 0 mm 3 mps 763 mmHg 71%
    04:00 +13°C° 0 mm 3 mps 763 mmHg 71%
    05:00 +16°C° 0 mm 3 mps 763 mmHg 67%
    06:00 +17°C° 0 mm 3 mps 763 mmHg 63%
    07:00 +19°C° 0 mm 3 mps 763 mmHg 59%
    08:00 +20°C° 0 mm 4 mps 763 mmHg 54%
    09:00 +21°C° 0 mm 5 mps 763 mmHg 50%
    10:00 +22°C° 0 mm 6 mps 763 mmHg 45%
    11:00 +23°C° 0 mm 7 mps 763 mmHg 43%
    12:00 +23°C° 0 mm 8 mps 763 mmHg 41%
    13:00 +23°C° 0 mm 9 mps 762 mmHg 39%
    14:00 +23°C° 0 mm 9 mps 762 mmHg 42%
    15:00 +22°C° 0 mm 9 mps 762 mmHg 45%
    16:00 +22°C° 0 mm 9 mps 762 mmHg 47%
    17:00 +20°C° 0 mm 8 mps 762 mmHg 52%
    18:00 +18°C° 0 mm 8 mps 762 mmHg 57%
    19:00 +16°C° 0 mm 7 mps 762 mmHg 62%
    20:00 +16°C° 0 mm 7 mps 762 mmHg 63%
    21:00 +15°C° 0 mm 7 mps 763 mmHg 64%
    22:00 +14°C° 0 mm 7 mps 763 mmHg 65%
    23:00 +14°C° 0 mm 7 mps 763 mmHg 65%

    Day after tomorrow, 27 May, Wednesday

    Time Temperature Precipitation Wind Pressure Humidity
    00:00 +12°C° 0 mm 7 mps 763 mmHg 65%
    01:00 +12°C° 0 mm 7 mps 762 mmHg 66%
    02:00 +13°C° 0 mm 6 mps 762 mmHg 65%
    03:00 +13°C° 0 mm 6 mps 762 mmHg 65%
    04:00 +11°C° 0 mm 6 mps 762 mmHg 64%
    05:00 +14°C° 0 mm 5 mps 763 mmHg 61%
    06:00 +15°C° 0 mm 5 mps 763 mmHg 57%
    07:00 +17°C° 0 mm 5 mps 763 mmHg 53%
    08:00 +20°C° 0 mm 5 mps 763 mmHg 48%
    09:00 +21°C° 0 mm 5 mps 763 mmHg 43%
    10:00 +23°C° 0 mm 5 mps 763 mmHg 39%
    11:00 +23°C° 0 mm 6 mps 763 mmHg 38%
    12:00 +24°C° 0 mm 6 mps 763 mmHg 38%
    13:00 +24°C° 0 mm 7 mps 763 mmHg 38%
    14:00 +24°C° 0 mm 8 mps 763 mmHg 41%
    15:00 +23°C° 0 mm 8 mps 762 mmHg 44%
    16:00 +23°C° 0 mm 9 mps 762 mmHg 47%
    17:00 +21°C° 0 mm 8 mps 763 mmHg 54%
    18:00 +20°C° 0 mm 8 mps 763 mmHg 61%
    19:00 +17°C° 0 mm 7 mps 763 mmHg 69%
    20:00 +16°C° 0 mm 7 mps 763 mmHg 70%
    21:00 +16°C° 0 mm 6 mps 764 mmHg 71%
    22:00 +15°C° 0 mm 5 mps 764 mmHg 73%
    23:00 +15°C° 0 mm 5 mps 764 mmHg 72%

    28 May, Thursday

    Time Temperature Precipitation Wind Pressure Humidity
    00:00 +14°C° 0 mm 4 mps 764 mmHg 71%
    01:00 +14°C° 0 mm 4 mps 764 mmHg 70%
    02:00 +13°C° 0 mm 4 mps 764 mmHg 69%
    03:00 +13°C° 0 mm 4 mps 763 mmHg 69%
    04:00 +13°C° 0 mm 4 mps 763 mmHg 69%
    05:00 +15°C° 0 mm 4 mps 763 mmHg 64%
    06:00 +17°C° 0 mm 4 mps 763 mmHg 59%
    07:00 +19°C° 0 mm 4 mps 763 mmHg 55%
    08:00 +20°C° 0 mm 4 mps 763 mmHg 50%
    09:00 +22°C° 0 mm 4 mps 763 mmHg 45%
    10:00 +25°C° 0 mm 4 mps 763 mmHg 40%
    11:00 +25°C° 0 mm 5 mps 763 mmHg 40%
    12:00 +24°C° 0 mm 6 mps 763 mmHg 40%
    13:00 +26°C° 0 mm 7 mps 762 mmHg 40%
    14:00 +24°C° 0 mm 7 mps 762 mmHg 43%
    15:00 +23°C° 0 mm 7 mps 762 mmHg 46%
    16:00 +22°C° 0 mm 8 mps 761 mmHg 49%
    17:00 +21°C° 0 mm 7 mps 762 mmHg 59%
    18:00 +18°C° 0 mm 7 mps 762 mmHg 69%
    19:00 +17°C° 0 mm 7 mps 762 mmHg 79%
    20:00 +16°C° 0 mm 5 mps 762 mmHg 81%
    21:00 +17°C° 0 mm 4 mps 762 mmHg 84%
    22:00 +16°C° 0 mm 3 mps 762 mmHg 86%
    23:00 +16°C° 0.2 mm 3 mps 762 mmHg 85%

    29 May, Friday

    Time Temperature Precipitation Wind Pressure Humidity
    00:00 +14°C° 0.2 mm 3 mps 762 mmHg 84%
    01:00 +14°C° 0.2 mm 3 mps 762 mmHg 84%
    02:00 +14°C° 0.1 mm 3 mps 762 mmHg 83%
    03:00 +14°C° 0.1 mm 3 mps 762 mmHg 82%
    04:00 +14°C° 0.1 mm 4 mps 761 mmHg 81%
    05:00 +16°C° 0 mm 3 mps 761 mmHg 75%
    06:00 +18°C° 0 mm 3 mps 761 mmHg 69%
    07:00 +20°C° 0 mm 3 mps 761 mmHg 63%
    08:00 +21°C° 0 mm 3 mps 761 mmHg 58%
    09:00 +24°C° 0 mm 2 mps 761 mmHg 53%
    10:00 +25°C° 0 mm 2 mps 761 mmHg 47%
    11:00 +25°C° 0 mm 3 mps 761 mmHg 46%
    12:00 +26°C° 0 mm 3 mps 761 mmHg 45%
    13:00 +26°C° 0 mm 4 mps 760 mmHg 44%
    14:00 +26°C° 0 mm 5 mps 760 mmHg 45%
    15:00 +25°C° 0 mm 5 mps 760 mmHg 47%
    16:00 +23°C° 0 mm 6 mps 760 mmHg 49%
    17:00 +21°C° 0 mm 5 mps 760 mmHg 57%
    18:00 +20°C° 0 mm 4 mps 760 mmHg 65%
    19:00 +18°C° 0 mm 3 mps 760 mmHg 73%
    20:00 +17°C° 0 mm 2 mps 761 mmHg 76%
    21:00 +16°C° 0 mm 2 mps 761 mmHg 79%
    22:00 +16°C° 0 mm 1 mps 761 mmHg 81%
    23:00 +15°C° 0 mm 1 mps 761 mmHg 80%

    30 May, Saturday

    Time Temperature Precipitation Wind Pressure Humidity
    00:00 +15°C° 0 mm 1 mps 761 mmHg 79%
    01:00 +15°C° 0 mm 2 mps 761 mmHg 78%
    02:00 +15°C° 0 mm 2 mps 761 mmHg 78%
    03:00 +15°C° 0 mm 2 mps 761 mmHg 78%
    04:00 +14°C° 0 mm 2 mps 761 mmHg 79%
    05:00 +16°C° 0 mm 2 mps 761 mmHg 73%
    06:00 +18°C° 0 mm 2 mps 761 mmHg 67%
    07:00 +20°C° 0 mm 2 mps 761 mmHg 61%
    08:00 +21°C° 0 mm 2 mps 761 mmHg 55%
    09:00 +24°C° 0 mm 2 mps 761 mmHg 48%
    10:00 +25°C° 0 mm 2 mps 761 mmHg 42%
    11:00 +25°C° 0 mm 2 mps 760 mmHg 43%
    12:00 +25°C° 0 mm 3 mps 760 mmHg 43%
    13:00 +26°C° 0 mm 3 mps 760 mmHg 44%
    14:00 +25°C° 0 mm 3 mps 760 mmHg 44%
    15:00 +25°C° 0 mm 2 mps 759 mmHg 44%
    16:00 +24°C° 0 mm 2 mps 759 mmHg 44%
    17:00 +23°C° 0 mm 2 mps 759 mmHg 50%
    18:00 +20°C° 0 mm 3 mps 759 mmHg 56%
    19:00 +18°C° 0 mm 3 mps 759 mmHg 61%
    20:00 +18°C° 0 mm 4 mps 760 mmHg 64%
    21:00 +17°C° 0 mm 4 mps 760 mmHg 66%
    22:00 +16°C° 0 mm 5 mps 760 mmHg 68%
    23:00 +17°C° 0.3 mm 4 mps 760 mmHg 66%
    Show more